Probability
0 0 0 0 0 0 0 0 0 0 0 0 0 0 0 0 0 0 0 0 0 0 0 0 0 0 0 0 0 0 0 0 0 0 0 0 0 0 0 0 0 0 0 1 1 1 1 1 2
0 0 0 0 0 0 0 0 0 0 0 0 0 0 0 0 0 0 0 0 0 0 0 0 0 0 0 0 0 0 0 0 0 0 0 0 0 0 0 0 0 0 0 1 2 2 2 1 1
0 0 0 0 0 0 0 0 0 0 0 0 0 0 0 0 0 0 0 0 0 0 0 0 1 1 0 0 0 0 0 0 0 0 0 0 0 0 0 0 0 0 0 1 1 1 1 1 0
0 0 0 0 0 0 0 0 0 0 0 0 0 0 0 0 0 0 0 0 0 0 0 0 1 1 0 0 0 0 0 0 0 0 0 0 0 0 0 0 0 0 0 0 0 0 0 0 0
0 0 0 0 0 0 0 0 0 0 0 0 0 0 0 0 0 0 0 0 0 0 0 0 1 1 0 0 0 0 0 0 0 0 0 0 0 0 0 0 0 0 0 0 0 0 0 0 1
0 0 0 0 0 0 0 0 0 0 0 0 0 0 0 0 0 0 0 0 0 0 0 0 0 0 0 0 0 0 0 0 0 0 0 0 0 0 0 0 0 0 0 0 0 0 0 0 1
0 0 0 0 0 0 0 0 0 0 0 0 0 0 0 0 0 0 0 0 0 0 0 0 0 0 0 0 0 0 0 0 0 0 0 0 0 0 0 0 0 0 0 0 0 0 0 0 1
0 0 0 0 0 0 0 0 0 0 0 0 0 0 0 0 0 0 0 0 0 0 0 0 0 0 0 0 0 0 0 0 0 0 0 0 0 0 0 0 0 0 0 0 0 0 0 0 0
0 0 0 0 0 0 0 0 0 0 0 0 0 0 0 0 0 0 0 0 0 0 0 0 0 0 0 0 0 0 0 0 0 0 0 0 0 0 0 0 0 0 0 0 0 0 0 0 0
0 0 0 0 0 0 0 0 0 0 0 0 0 0 0 0 0 0 0 0 0 0 0 0 0 0 0 0 0 0 0 0 0 0 0 0 0 0 0 0 0 0 0 0 0 0 0 0 0
0 0 0 0 0 0 0 0 0 0 0 0 0 0 0 0 0 0 0 0 0 0 0 0 0 0 0 0 0 0 0 0 0 0 0 0 0 0 0 0 0 0 0 0 0 0 0 0 0
0 0 0 0 0 0 0 0 0 0 0 0 0 0 0 0 0 0 0 0 0 0 0 0 0 0 0 0 0 0 0 0 0 0 0 0 0 0 0 0 0 0 0 0 0 0 0 0 0
0 0 0 0 0 0 0 0 0 0 0 0 0 0 0 0 0 0 0 0 0 0 0 0 0 0 0 0 0 0 0 0 0 0 0 0 0 0 0 0 0 0 0 0 0 0 0 0 0
0 0 0 0 0 0 0 0 0 0 0 0 0 0 0 0 0 0 0 0 0 0 0 0 0 0 0 0 0 0 0 0 0 0 0 0 0 0 0 0 0 0 0 0 0 0 0 0 0
0 0 0 0 0 0 0 0 0 0 0 0 0 0 0 0 0 0 0 0 0 0 0 0 0 0 0 0 0 0 0 0 0 0 0 0 0 0 0 0 0 0 0 0 0 0 0 0 0
0 0 0 0 0 0 0 0 0 0 0 0 0 0 0 0 0 0 0 0 0 0 0 0 0 0 0 0 0 0 0 0 0 0 0 0 0 0 0 0 0 0 0 0 0 0 0 0 0
0 0 0 0 0 0 0 0 0 0 0 0 0 0 0 0 0 0 0 0 0 0 0 0 0 0 0 0 0 0 0 0 0 0 0 0 0 0 0 0 0 0 0 0 0 0 0 0 0
0 0 0 0 0 0 0 0 0 0 0 0 0 0 0 0 0 0 0 0 0 0 0 0 0 0 0 0 0 0 0 0 0 0 0 0 0 0 0 0 0 0 0 0 0 0 0 0 0
0 0 0 0 0 0 0 0 0 0 0 0 0 0 0 0 0 0 0 0 0 0 0 0 0 1 1 1 1 0 0 0 0 0 0 0 0 0 0 0 0 0 0 0 0 0 0 0 0
0 0 0 0 0 0 0 0 0 0 0 0 0 0 0 0 0 0 0 1 0 0 0 0 0 1 2 2 2 1 0 0 0 0 0 0 1 1 1 1 1 0 0 0 0 0 0 0 0
0 0 0 0 0 0 0 0 0 0 0 0 0 0 0 0 0 0 0 0 0 0 0 0 0 1 1 3 3 1 1 1 1 1 1 1 2 2 2 2 2 1 0 0 0 0 0 0 0
0 0 0 0 0 0 0 0 0 0 0 0 0 0 0 0 0 0 0 0 0 0 0 0 0 0 1 2 3 3 2 2 2 2 2 2 3 3 3 3 2 1 0 0 0 0 0 0 0
0 0 0 0 0 0 0 0 0 0 0 0 0 0 0 0 0 1 1 1 1 1 0 0 0 0 1 2 3 3 3 3 3 2 1 2 3 3 3 3 2 2 1 0 0 0 0 0 0
0 0 0 0 0 0 0 0 0 0 0 0 0 0 0 0 1 2 3 3 3 3 1 0 0 0 0 1 2 2 2 3 3 2 1 1 2 3 3 3 3 2 1 0 0 0 0 0 0
0 0 0 0 0 0 0 0 0 0 0 0 0 0 0 0 1 2 4 4 4 3 1 0 0 0 0 0 1 1 1 1 2 2 1 0 1 1 2 2 2 1 0 0 0 0 0 0 0
0 0 0 0 0 0 0 0 0 0 0 0 0 0 0 0 0 1 2 3 3 2 1 0 0 0 0 0 0 0 0 0 1 1 0 0 0 0 1 1 1 0 0 0 0 0 0 0 0
0 0 0 0 0 0 0 0 0 0 0 0 0 0 0 0 0 0 1 1 2 2 1 1 0 0 0 0 0 0 0 0 0 0 0 0 0 0 0 0 0 0 0 0 0 0 0 0 0
0 0 0 0 0 0 0 0 0 0 0 0 0 0 0 1 1 1 1 1 1 1 1 1 1 0 0 0 0 0 0 0 0 0 0 0 0 0 0 0 0 0 0 0 0 0 0 0 0
0 0 0 0 0 0 0 0 0 0 0 0 0 0 0 1 2 2 1 2 1 0 0 0 0 0 0 0 0 0 0 0 0 0 0 0 0 0 0 0 0 0 0 0 0 0 0 0 0
0 0 0 0 0 0 0 0 0 0 0 0 0 0 0 0 1 1 2 2 1 1 0 0 0 0 0 0 0 0 0 0 0 0 0 0 0 0 0 0 0 0 0 0 0 0 0 0 0
Wind_Speed
2 0 2 3 5 5 2 1 2 2 4 4 7 9 8 5 4 3 2 5 6 4 3 4 7 7 7 8 8 8 9 9 9 10 10 10 10 10 10 10 10 10 9 8 8 8 8 7 7
0 1 3 4 5 3 1 0 3 3 6 7 8 7 7 5 4 5 2 4 7 5 4 5 7 7 8 8 8 9 9 9 9 10 10 10 10 10 10 10 10 10 9 9 9 9 8 8 7
0 1 3 4 3 3 3 2 4 4 5 5 5 5 5 4 3 3 5 7 7 5 4 5 8 8 8 8 9 9 9 9 9 9 10 10 11 10 10 10 10 10 9 10 10 9 9 9 8
2 4 4 4 3 1 4 3 5 6 5 5 6 6 4 2 4 5 8 8 7 5 4 5 8 8 8 9 9 9 9 9 10 10 10 10 10 10 10 10 10 10 10 10 9 9 9 9 9
3 4 4 3 2 1 2 4 5 6 4 5 7 6 3 1 6 9 9 8 8 5 3 5 9 9 9 9 9 9 9 9 10 10 10 10 10 10 10 10 10 9 9 9 9 9 9 9 9
4 4 4 2 2 2 2 4 7 7 6 6 7 6 2 2 7 7 8 7 7 6 4 4 8 9 8 9 9 9 9 9 9 9 9 9 9 8 9 9 9 9 8 8 8 8 8 9 9
4 4 3 3 2 2 2 3 6 6 6 5 7 6 3 3 5 7 7 7 6 6 4 3 3 5 7 8 8 8 8 8 8 8 8 9 8 8 8 8 8 8 8 8 8 7 8 8 9
5 4 2 2 3 1 1 2 4 7 4 5 6 7 5 6 6 6 6 6 6 5 5 4 3 3 3 3 6 7 7 7 7 7 7 7 7 7 7 6 6 6 7 7 7 7 7 7 8
4 5 2 3 4 2 2 4 2 4 6 4 3 5 7 9 8 7 5 4 4 5 4 4 3 3 2 2 3 4 4 4 4 4 5 4 2 2 3 4 5 6 6 6 6 6 6 7 7
4 4 3 3 5 4 3 4 3 5 6 4 5 5 8 9 8 8 7 5 5 5 5 4 4 3 3 2 2 1 1 1 1 1 2 1 1 1 1 2 4 5 5 5 5 6 5 5 3
4 4 3 2 4 5 3 2 2 7 4 6 9 9 9 8 8 8 7 6 6 6 5 5 4 4 3 2 2 1 0 0 1 1 2 2 1 1 1 1 2 2 3 2 3 4 3 3 2
3 3 4 3 3 3 3 3 3 4 6 8 12 12 10 9 9 8 8 7 6 6 6 5 5 4 3 2 2 1 1 1 1 1 3 2 1 1 1 1 1 1 1 2 2 2 2 3 3
2 1 2 3 5 4 4 3 4 2 4 8 9 9 8 9 8 6 7 6 6 6 6 6 5 4 3 2 1 1 1 1 1 1 2 3 2 2 1 1 1 1 1 2 2 2 3 3 3
3 3 2 2 3 3 5 2 4 3 5 8 9 8 7 8 8 6 6 6 6 6 6 5 5 5 4 2 2 1 1 1 2 2 2 3 3 3 2 2 2 1 2 2 2 3 3 2 3
2 2 1 1 3 3 5 1 3 5 6 7 7 7 7 6 7 8 7 7 7 7 6 6 6 5 4 3 2 2 2 2 2 2 3 3 3 3 3 2 2 1 2 3 3 3 3 3 3
2 2 1 3 3 3 6 3 5 5 7 6 6 5 5 5 7 7 7 6 6 7 6 6 6 6 4 3 3 2 2 2 2 2 2 3 3 4 3 3 2 2 2 3 3 3 3 3 2
2 1 3 3 3 4 5 4 4 4 7 6 5 5 5 4 5 5 7 7 7 7 7 6 5 6 5 4 3 3 3 2 2 2 2 3 4 4 4 3 2 3 3 2 3 2 2 2 2
3 3 3 4 3 5 4 4 3 5 7 7 5 5 5 6 6 6 6 7 7 7 6 6 5 5 5 3 3 3 3 2 2 2 2 3 3 4 4 3 3 3 3 2 2 2 2 2 1
3 3 3 4 4 4 5 5 5 6 5 5 6 6 6 7 6 5 6 6 7 6 6 5 5 4 4 3 2 2 1 1 1 1 2 3 3 4 4 3 3 3 3 2 2 2 3 2 1
3 2 2 2 1 3 3 4 5 7 8 8 9 8 8 6 4 4 5 5 6 6 6 5 5 5 4 3 2 2 2 1 1 1 2 2 3 3 3 4 3 3 3 3 2 3 2 1 1
4 4 4 3 1 1 2 2 2 3 4 4 6 8 8 10 8 7 6 6 6 6 7 7 6 5 4 4 3 3 3 2 2 2 1 1 2 2 3 3 3 3 3 2 2 3 3 2 1
4 4 4 3 1 3 2 2 5 4 4 5 5 6 7 8 8 8 7 7 7 7 6 6 6 5 4 5 5 5 3 2 2 1 1 1 1 2 2 3 3 3 2 3 2 3 2 3 1
4 3 2 2 2 2 1 2 6 2 5 7 6 6 7 8 9 8 8 8 7 6 6 6 5 4 4 4 5 5 3 2 1 1 1 1 1 1 1 2 2 2 2 2 2 2 3 2 2
2 2 4 4 3 2 5 4 5 5 8 7 6 7 7 7 8 7 6 6 5 5 5 6 6 4 4 5 5 5 5 3 2 1 1 0 0 0 0 1 1 2 2 2 2 3 3 2 2
4 5 3 3 2 5 3 4 6 6 6 8 9 8 7 7 8 7 6 6 6 5 5 5 6 5 4 5 4 4 5 5 4 3 2 1 1 0 1 1 1 1 2 2 2 3 2 3 3
3 7 6 4 4 4 1 4 6 4 4 5 6 7 7 6 7 7 8 7 7 6 6 6 5 5 4 4 4 4 4 3 2 3 3 2 2 2 2 2 1 1 2 2 2 2 2 2 2
3 3 6 5 1 1 3 2 3 1 2 4 5 6 7 6 7 7 6 6 6 6 6 6 6 5 4 4 3 3 3 3 3 3 2 2 1 1 1 2 1 1 1 1 2 2 2 2 2
5 5 4 3 2 2 4 3 4 4 4 4 5 6 5 5 5 6 6 6 5 5 5 5 6 5 4 3 3 3 2 2 2 2 2 2 1 1 1 1 1 1 1 1 2 1 1 2 1
1 2 4 3 4 4 3 6 5 7 7 7 7 7 6 6 6 6 5 5 5 4 4 4 4 4 3 2 2 2 2 2 2 2 2 2 1 1 1 1 2 1 1 2 2 2 2 2 2
4 5 6 5 3 4 3 7 4 4 5 6 6 5 5 5 5 5 5 5 5 4 4 4 4 3 3 3 3 3 3 2 2 1 1 1 1 1 1 1 1 1 1 2 3 2 2 2 2
Wind_Direction
256 172 100 65 54 54 61 345 130 89 66 65 76 82 83 68 88 129 216 141 138 139 135 115 106 98 95 97 93 89 86 83 82 82 83 82 81 81 84 85 83 80 82 83 86 91 92 93 98
265 110 70 61 78 78 11 236 104 112 135 121 84 82 79 73 89 115 131 138 132 127 124 114 110 106 103 101 97 93 90 88 86 85 86 85 83 84 84 85 85 82 80 80 82 83 87 87 89
219 109 80 68 89 141 162 178 128 105 109 104 87 63 78 106 112 135 154 138 123 116 119 121 114 111 109 105 102 97 94 92 89 88 87 85 84 85 85 84 84 84 82 82 81 80 81 84 84
78 50 56 71 86 180 162 166 132 107 77 71 96 71 65 107 138 141 136 129 118 113 116 123 118 116 115 110 106 102 100 95 92 89 89 88 86 85 85 84 81 82 83 83 83 81 80 82 82
74 76 65 67 86 124 127 133 119 105 94 85 93 94 75 52 116 128 132 130 126 123 122 124 123 120 116 113 111 108 104 99 95 92 91 93 91 87 86 85 81 81 82 82 82 80 81 81 81
65 74 86 95 80 45 77 105 96 94 109 109 103 111 126 141 129 138 139 135 133 134 129 118 120 118 116 115 114 112 108 102 99 98 97 96 96 93 91 90 86 84 86 84 84 81 81 81 80
113 98 116 127 90 52 85 104 109 111 117 134 128 110 135 165 156 144 136 133 130 130 123 114 118 119 119 119 116 113 113 110 106 103 100 100 99 97 93 90 88 86 87 87 88 85 82 79 78
130 101 84 107 112 113 63 80 115 119 119 132 122 132 167 190 164 134 129 128 129 132 137 139 127 116 118 122 127 121 123 119 114 110 104 101 100 94 90 87 85 87 86 81 83 88 88 87 81
101 85 123 167 151 176 124 93 84 92 100 95 106 149 165 158 141 125 122 117 132 141 153 150 146 140 135 141 140 128 133 131 118 112 112 104 79 72 77 86 89 89 87 82 79 80 87 87 82
97 119 190 182 162 154 141 129 132 94 89 88 85 104 136 143 141 143 148 152 154 159 165 160 159 158 161 163 129 128 139 122 120 123 130 128 117 77 80 74 85 84 83 76 73 72 72 70 66
125 153 165 151 154 138 138 135 115 122 132 159 152 154 153 148 150 155 163 168 169 170 167 164 169 171 169 163 157 156 144 159 178 179 175 141 115 78 50 44 42 41 48 45 48 55 53 63 69
118 166 153 161 152 141 144 132 108 142 179 172 161 161 156 156 164 168 166 171 164 161 171 171 169 162 161 159 166 161 162 185 195 186 155 134 126 121 113 86 64 47 46 61 60 65 69 68 72
125 180 145 152 136 137 124 127 130 161 163 154 148 148 153 161 166 169 166 165 158 159 168 173 173 160 158 156 167 143 161 165 157 132 137 136 129 125 120 96 85 78 74 81 82 80 80 82 80
173 157 159 157 146 143 120 111 116 181 150 148 148 158 158 163 166 160 157 163 168 161 163 166 161 161 148 143 137 135 131 115 107 104 121 129 127 126 117 104 88 77 86 86 89 91 90 82 81
140 118 9 193 168 164 115 83 191 186 148 150 160 168 163 166 160 163 169 166 167 163 159 158 152 140 131 131 122 110 96 96 92 94 110 119 123 120 113 102 86 73 79 81 79 74 73 80 76
64 91 239 261 181 170 129 213 240 193 150 162 175 178 174 172 166 167 163 157 158 154 153 158 147 135 133 126 112 98 91 91 87 91 94 105 110 111 107 100 97 95 86 83 88 80 73 66 69
33 193 223 263 210 173 150 208 236 186 156 170 185 181 175 167 165 171 165 159 156 156 152 147 138 135 133 120 107 95 94 88 85 84 79 96 108 113 110 106 107 101 88 80 91 81 90 82 70
212 212 222 226 218 155 167 210 208 185 168 173 186 189 178 175 185 177 165 158 154 151 146 142 135 131 126 111 91 75 68 67 68 80 83 96 105 113 112 111 107 103 94 77 79 86 73 86 87
200 203 231 236 211 159 188 212 212 197 180 174 179 190 190 194 194 167 154 148 141 137 138 139 135 137 132 122 120 110 101 86 69 83 94 102 108 116 116 113 110 107 109 115 112 101 81 54 64
222 224 252 285 213 164 191 226 222 198 195 187 182 186 189 186 174 163 149 145 147 150 147 144 147 147 148 150 153 147 142 137 117 77 74 90 109 123 127 125 128 124 114 106 108 107 98 50 57
233 207 210 217 323 9 126 321 272 242 207 195 186 184 181 176 175 170 158 154 150 153 158 156 155 148 148 138 112 90 65 48 41 42 44 53 111 119 124 134 136 135 133 143 146 135 127 127 13
239 226 198 192 138 265 167 240 271 233 211 209 196 180 179 174 171 170 162 158 162 166 160 155 152 148 148 139 133 134 132 144 194 187 165 74 107 123 128 133 138 145 148 155 169 150 141 135 140
223 218 202 202 180 270 248 175 273 227 213 221 207 187 177 174 170 172 170 169 167 163 157 153 148 148 146 141 142 139 134 155 158 111 94 63 44 90 128 135 136 150 160 162 156 143 144 147 154
196 55 26 47 78 273 235 180 259 222 209 207 202 188 174 167 167 169 169 157 157 154 150 147 143 148 151 142 144 147 150 153 138 129 142 138 4 4 73 127 130 150 159 163 167 164 156 161 153
78 85 33 355 3 252 234 170 243 235 203 189 184 183 177 167 165 166 159 158 157 151 153 151 146 151 152 145 147 153 158 158 160 164 170 164 172 217 224 147 159 166 174 171 164 159 165 166 161
184 144 160 196 221 276 303 206 247 247 201 170 159 160 160 165 167 170 170 167 162 159 156 151 150 153 157 157 165 161 158 160 168 164 158 176 191 202 190 173 172 183 174 161 158 157 173 165 172
153 181 174 149 204 265 277 273 304 10 108 139 146 149 165 178 176 169 165 163 163 163 162 159 156 153 160 162 157 160 170 165 166 163 153 167 190 196 172 166 168 187 166 149 149 158 182 167 183
163 158 100 121 173 248 275 248 234 221 191 167 162 166 172 172 174 166 165 161 163 164 159 156 160 165 163 155 156 161 171 166 159 148 157 171 194 184 153 155 169 177 161 141 141 164 186 161 189
151 140 122 136 159 164 244 266 232 203 190 178 179 174 173 171 169 167 163 158 151 146 145 144 150 149 147 150 147 143 153 146 141 156 180 187 187 166 158 163 156 177 192 175 157 172 170 177 204
179 179 150 160 211 172 186 265 287 199 183 168 167 166 163 163 160 156 152 149 144 143 150 152 151 147 153 148 136 129 124 118 116 133 180 187 181 182 156 138 143 178 185 174 162 176 171 184 213